Location: Unspecified
(0.0000°N, 0.0000°E)
Time: 13:39:14
(UTC+01:00)

Ariane H10 - Visible Passes

Search period start: 01 November 2014 00:00
Search period end: 11 November 2014 00:00
Orbit: 417 x 35152 km, 3.9° (Epoch: 31 October)

Date Brightness Start Highest point End Pass type
(mag) Time Alt. Az. Time Alt. Az. Time Alt. Az.
01 Nov 8.7 00:00:00 35° W 01:23:37 47° W 01:23:37 47° W visible
01 Nov 7.5 12:41:02 10° W 20:36:22 85° SE 22:10:05 54° E visible
03 Nov 2.5 05:53:58 14° W 05:57:46 86° N 06:00:21 10° E visible
03 Nov 8.9 16:56:39 10° W 02:06:13 31° W 02:06:13 31° W visible
04 Nov 8.0 13:24:46 10° W 19:17:43 88° S 22:52:48 70° ESE visible
05 Nov 5.8 10:01:34 10° W 10:06:34 73° N 10:53:02 10° E visible
06 Nov 6.9 17:46:28 10° W 02:48:49 17° W 02:48:49 17° W visible
07 Nov 8.2 14:08:53 10° W 18:12:52 89° S 23:35:21 83° S visible
08 Nov 6.3 10:44:34 10° W 10:51:28 76° N 20:21:51 16° E visible
09 Nov 11.6 18:41:13 10° W 20:11:04 30° W 23:46:15 10° W visible
10 Nov 5.9 04:03:28 16° E 04:03:28 16° E 04:04:02 10° E visible
10 Nov 9.0 14:53:36 10° W 16:41:14 88° WNW 00:00:00 57° W visible
